This demonstration page uses our WeatherBlox Daily Observations layout. Learn more.

Left ArrowRight Arrow

Hourly Observations for May 18, 2021

Temp ( °F °C ) Dew Point ( °F °C ) Humidity (%) Winds ( mph kmh ) Pressure ( in mb ) Visibility ( mi km ) Precip ( " mm )
12:53 am 00:53 Clear 60 15.6 41 5 50 50 SW 12 19 29.60 1003 10 16 0.00 0.00
1:53 am 01:53 Clear 53 11.7 41 5 64 64 W 3 6 29.62 1003 10 16 0.00 0.00
2:53 am 02:53 Clear 52 11.1 41 5 66 66 WNW 3 6 29.62 1003 10 16 0.00 0.00
3:53 am 03:53 Clear 53 11.7 40 4.4 61 61 WNW 5 7 29.60 1002 10 16 0.00 0.00
4:53 am 04:53 Clear 47 8.3 40 4.4 77 77 WSW 6 9 29.62 1003 10 16 0.00 0.00
5:53 am 05:53 Sunny 51 10.6 41 5 69 69 WSW 9 15 29.62 1003 10 16 0.00 0.00
6:53 am 06:53 Sunny 53 11.7 42 5.6 66 66 WSW 9 15 29.63 1003 10 16 0.00 0.00
7:53 am 07:53 Sunny 59 15 43 6.1 56 56 SW 16 26 29.64 1004 10 16 0.00 0.00
8:53 am 08:53 Sunny 65 18.3 41 5 42 42 WSW 13 20 29.66 1004 10 16 0.00 0.00
9:53 am 09:53 Sunny 72 22.2 40 4.4 31 31 W 15 24 29.65 1004 10 16 0.00 0.00
10:53 am 10:53 Sunny 74 23.3 39 3.9 28 28 W 15 24 29.64 1004 10 16 0.00 0.00
11:53 am 11:53 Sunny 76 24.4 39 3.9 26 26 W 9 15 29.64 1004 10 16 0.00 0.00
12:53 pm 12:53 Mostly Sunny 78 25.6 39 3.9 25 25 W 18 30 29.62 1003 10 16 0.00 0.00
1:53 pm 13:53 Sunny 80 26.7 40 4.4 24 24 WSW 23 37 29.61 1003 10 16 0.00 0.00
2:53 pm 14:53 Partly Cloudy 77 25 38 3.3 24 24 WNW 30 48 29.62 1003 10 16 0.00 0.00
3:53 pm 15:53 Mostly Sunny 76 24.4 37 2.8 24 24 NW 22 35 29.65 1004 10 16 0.00 0.00
4:53 pm 16:53 Mostly Sunny 70 21.1 29 -1.7 22 22 WNW 25 41 29.69 1005 10 16 0.00 0.00
5:53 pm 17:53 Mostly Cloudy 67 19.4 25 -3.9 20 20 WNW 21 33 29.70 1006 10 16 0.00 0.00
6:53 pm 18:53 Cloudy 66 18.9 20 -6.7 17 17 W 16 26 29.72 1007 10 16 0.00 0.00
7:53 pm 19:53 Mostly Cloudy 64 17.8 18 -7.8 17 17 WNW 24 39 29.73 1007 10 16 0.00 0.00
8:53 pm 20:53 Sunny 61 16.1 17 -8.3 18 18 WNW 16 26 29.76 1008 10 16 0.00 0.00
9:53 pm 21:53 Clear 59 15 18 -7.8 20 20 WNW 16 26 29.79 1009 10 16 0.00 0.00
10:53 pm 22:53 Clear 56 13.3 18 -7.8 22 22 WNW 12 19 29.81 1010 10 16 0.00 0.00
11:53 pm 23:53 Clear 52 11.1 20 -6.7 28 28 W 7 11 29.83 1010 10 16 0.00 0.00

Powered by AerisWeather